Regional Weather Roundup
Issued by NWS

Home | Current Version | Previous Version | Graphics & Text | Print | Product List | Glossary On
Versions: 1 2 3 4 5 6 7 8 9 10 11 12 13 14 15 16 17 18 19 20 21 22 23 24 25 26 27 28 29 30 31 32 33 34 35 36 37 38 39 40 41 42 43 44 45 46 47 48 49 50
000
ASUS43 KOAX 200410
RWRNE

WEATHER ROUNDUP FOR NEBRASKA
NATIONAL WEATHER SERVICE OMAHA NE
1100 PM CDT SAT AUG 19 2017

NOTES: SATELLITE DATA IS BEING USED TO AUGMENT CLOUD COVER ABOVE
       12000 FEET.
       "FAIR" INDICATES FEW OR NO CLOUDS BELOW 12,000 FEET WITH NO
       SIGNIFICANT WEATHER AND/OR OBSTRUCTIONS TO VISIBILITY.


NEZ001>004-019>022-054>056-200500-
NEBRASKA PANHANDLE

CITY           SKY/WX    TMP DP  RH WIND       PRES   REMARKS
SCOTTSBLUFF    CLEAR     69  49  48 SE3       29.93S
ALLIANCE       CLEAR     65  50  58 E5        29.93R
CHADRON        CLEAR     74  44  34 NE10      29.90R
GORDON         FAIR      61  55  78 CALM      29.91R
KIMBALL        CLEAR     70  41  34 S7        30.02S
SIDNEY         CLEAR     62  53  72 CALM      29.98R
$$

NEZ057>060-069>072-079>082-200500-
SOUTHWEST NEBRASKA

CITY           SKY/WX    TMP DP  RH WIND       PRES   REMARKS
NORTH PLATTE   CLEAR     70  66  87 E6        29.86R
IMPERIAL       CLEAR     75  60  59 CALM      29.89R
LEXINGTON      CLEAR     78  62  58 SE10      29.85S
MCCOOK         CLEAR     78  59  51 SW12      29.85R
OGALLALA       CLEAR     67  60  76 CALM      29.89R
$$

NEZ005>010-023>029-035>040-094-200500-
NORTH CENTRAL NEBRASKA

CITY           SKY/WX    TMP DP  RH WIND       PRES   REMARKS
VALENTINE      CLEAR     74  61  63 S10       29.86R
AINSWORTH      CLOUDY    71  62  72 S10       29.87S
BROKEN BOW     CLOUDY    72  59  63 SE7       29.89F
O`NEILL        CLOUDY    75  56  52 S13       29.82S
ORD            TSTM      71  62  73 SE10      29.87F
THEDFORD       CLEAR     72  60  66 E5        29.91R
$$

NEZ041-046>049-061>064-073>077-083>087-200500-
SOUTH CENTRAL NEBRASKA

CITY           SKY/WX    TMP DP  RH WIND       PRES   REMARKS
GRAND ISLAND   CLOUDY    83  72  69 SE20G38   29.85F THUNDER
AURORA         RAIN      79  73  81 S20G31    29.82F
HASTINGS       PTCLDY    78  71  79 S9        29.87R
HEBRON         CLOUDY    82  71  70 S12       29.86S
HOLDREGE       CLOUDY    77  61  56 SE14G20   29.87R
KEARNEY        CLOUDY    73  64  73 S26G35    29.86R THUNDER HAZE
YORK           CLOUDY    81  72  74 S14       29.85S
$$

NEZ011>018-030>034-042>045-200500-
NORTHEAST NEBRASKA

CITY           SKY/WX    TMP DP  RH WIND       PRES   REMARKS
NORFOLK        TSTM      72  60  66 SW26G38   29.88S
ALBION         TSTM      69  61  75 SE10G16   29.91F
BLAIR          CLOUDY    78  62  58 SE13      29.86F
COLUMBUS       CLOUDY    69  60  73 NW28G38   29.95R THUNDER
FREMONT        CLOUDY    77  62  60 SE12G18   29.85S
TEKAMAH        CLOUDY    70  65  84 SE5       29.86R
WAYNE          CLOUDY    73  66  76 S18G24    29.86R THUNDER
$$

NEZ050>053-065>068-078-088>093-200500-
SOUTHEAST NEBRASKA

CITY           SKY/WX    TMP DP  RH WIND       PRES   REMARKS
LINCOLN        CLOUDY    81  66  60 SE15      29.84F
OMAHA EPPLEY   CLOUDY    79  61  53 SE18      29.86F
BEATRICE       CLOUDY    81  70  69 NW8       29.91R THUNDER
FALLS CITY     CLEAR     74  69  85 SE6       29.89F
NEBRASKA CITY  CLOUDY    73  69  87 S8        29.89S
PLATTSMOUTH    CLOUDY    75  64  67 SE9       29.88F
$$

NEZ044-045-051>053-067-200500-
OMAHA AREA

CITY           SKY/WX    TMP DP  RH WIND       PRES   REMARKS
OMAHA EPPLEY   CLOUDY    79  61  53 SE18      29.86F
BLAIR          CLOUDY    78  62  58 SE13      29.86F
FREMONT        CLOUDY    77  62  60 SE12G18   29.85S
MILLARD        CLOUDY    77  65  64 SE8       29.86F
OFFUTT AFB     CLOUDY    75  62  64 SE6       29.86F
PLATTSMOUTH    CLOUDY    75  64  67 SE9       29.88F
WAHOO          FAIR      73  65  77 SE10      29.84F
$$




USA.gov is the U.S. government's official web portal to all federal, state and local government web resources and services.